Location: Aciu?a
(46.2833°N, 22.4500°E)
Time: 12:22:53
(UTC+00:00)

Meteor 1-11 - Pass Details

Date: 25 October 2021
Orbit: 841 x 886 km, 81.2° (Epoch: 06 December)

Event Time Altitude Azimuth Distance (km) Brightness Sun altitude
Rises 16:42:04 0° 347° (NNW) 3,414 7.5 -13.7°
Reaches altitude 10° 16:44:29 10° 346° (NNW) 2,478 6.8 -14.1°
Maximum altitude 16:50:06 78° 261° (W) 876 4.4 -15.1°
Drops below altitude 10° 16:55:44 10° 177° (S) 2,486 6.6 -16.0°
Sets 16:58:10 0° 176° (S) 3,426 7.3 -16.4°
